Lid_Strength_Index
6 7 9 8 8 8 9 9 10 9 7 8 8 8 8 7 7 7 8 8 8 7 6 6 4 4 4 3 2 2 2 0 1 2 1 0 1 0 0 -0 -1 -1 -1 -1
8 9 7 7 7 8 9 10 10 9 8 8 8 9 7 7 7 6 6 6 6 6 6 5 5 4 4 4 3 1 1 1 1 2 -0 0 0 0 -0 -0 -1 -1 -1 -1
9 8 7 8 8 8 8 9 9 9 9 8 9 10 8 7 6 5 5 4 4 5 5 3 4 4 3 4 3 3 2 1 1 -0 0 -0 -0 0 1 0 0 -0 -1 -1
8 7 8 9 9 9 10 8 8 9 10 11 9 13 9 8 8 7 6 5 5 4 3 3 3 2 3 3 3 2 1 1 1 -1 -0 -0 1 2 1 0 -0 -0 -1 -0
9 9 9 9 8 7 9 8 9 9 10 10 10 12 9 8 8 7 6 5 4 4 4 3 3 2 1 1 2 2 1 0 0 -0 -0 1 0 1 0 0 -0 -0 -0 -0
7 6 7 7 7 7 7 8 8 8 9 13 10 11 10 9 8 7 6 5 5 4 4 3 3 2 2 1 1 0 1 1 0 0 -0 0 1 1 1 1 1 1 1 0
7 7 6 6 8 7 7 9 12 13 13 13 10 11 9 7 7 6 7 6 5 4 4 3 3 3 2 1 1 1 1 1 0 0 0 0 0 0 1 1 1 1 1 1
11 11 8 6 7 8 8 9 12 16 15 13 10 13 9 6 5 6 6 5 4 4 4 3 3 2 2 1 1 1 1 1 1 0 0 0 0 1 1 0 1 1 1 1
10 10 7 6 6 6 9 10 8 11 11 13 11 9 7 6 6 6 5 5 4 4 3 3 3 2 1 1 1 1 1 1 0 0 0 0 0 0 1 0 0 0 0 0
8 12 7 7 6 6 7 7 11 10 15 16 12 11 10 8 7 6 6 5 4 3 3 3 2 2 1 1 1 0 0 1 0 0 0 0 0 0 0 0 1 0 0 -0
7 9 9 8 9 9 9 9 9 10 12 15 15 11 7 7 6 6 5 4 4 3 3 3 2 2 1 1 1 1 1 1 1 0 0 0 0 0 0 1 1 0 0 0
6 9 12 10 7 6 7 8 8 13 13 12 12 12 6 6 5 5 5 4 4 3 3 2 2 2 2 1 1 1 1 1 1 1 0 0 0 0 1 1 1 0 0 0
7 10 13 12 9 8 9 8 8 8 10 13 14 11 6 5 5 5 5 4 4 3 3 3 2 2 2 2 1 1 1 2 2 1 1 1 1 1 1 1 1 0 0 0
6 9 11 14 11 10 11 10 8 9 13 12 11 10 7 6 6 5 5 4 4 4 3 3 3 2 2 2 1 1 1 1 1 1 1 1 1 1 1 1 1 1 0 1
7 12 10 10 9 9 10 10 9 10 10 13 10 10 8 6 6 5 5 4 4 4 4 3 3 2 2 2 2 1 1 1 1 1 1 1 1 1 1 1 1 1 1 1
6 12 10 11 9 9 11 9 9 9 9 9 9 9 6 5 5 5 5 5 5 4 4 3 3 2 2 2 2 2 1 1 1 1 1 1 1 1 1 1 1 1 1 1
8 10 12 14 10 10 13 10 9 8 8 8 10 8 6 6 6 5 5 5 5 4 4 3 3 3 2 2 2 2 2 1 2 2 1 1 2 2 2 1 1 1 1 1
9 11 12 14 11 18 9 7 7 8 8 7 7 6 6 6 5 4 4 4 4 4 4 3 3 3 2 1 1 2 2 2 2 2 2 2 3 3 3 2 2 2 1 2
7 10 14 15 15 11 10 8 9 10 10 6 7 6 6 5 5 5 3 3 4 4 3 3 2 2 2 2 2 3 3 4 3 3 4 3 3 4 3 2 2 2 2 2
9 9 13 14 18 18 12 8 6 7 13 7 7 6 6 6 9 7 4 4 3 3 2 2 2 2 3 3 4 4 4 4 4 5 5 4 4 3 3 2 2 2 2 2
14 13 15 15 16 13 8 7 6 14 13 7 6 6 6 8 6 5 4 3 2 2 3 3 3 4 4 4 4 4 4 5 5 4 4 4 5 2 2 2 2 2 2 2
13 14 15 14 17 17 7 7 12 8 6 6 6 6 6 6 5 4 3 3 3 4 4 4 5 5 4 4 5 5 5 5 4 5 4 4 3 2 2 3 3 2 2 3
12 10 12 11 11 6 5 6 5 5 7 7 7 5 5 5 5 4 4 4 4 4 5 5 6 6 5 5 6 6 4 4 5 5 3 3 2 2 2 3 3 3 3 3
8 7 10 10 8 7 6 5 4 4 5 5 4 5 4 5 4 4 4 4 5 6 6 6 7 6 6 5 5 4 4 3 4 4 3 3 3 3 3 2 2 3 3 3
9 8 10 9 7 7 6 5 5 5 4 4 4 4 4 4 5 5 5 5 6 6 7 7 7 6 6 6 5 3 3 2 3 3 3 3 3 3 3 3 2 2 2 2
9 10 12 12 9 10 9 5 5 5 5 5 5 5 5 5 7 6 7 6 7 7 7 8 8 7 6 5 4 2 2 2 3 4 3 3 3 3 3 3 5 14 11 11